Погода в Мегреге

Россия / Республика Карелия     60°55′59″N   33°05′57″E
темп.,
°C
ветер,
м/с
пор.,
м/с
влажн.,
%
обл.,
%
осадки,
мм/ч
давл.,
гПа
погр.,
м
21 апреля, ср
ср2100:00+4вюв387093 0.0 1018176
03:00+3в2674100 0.0 1016137
06:00+2в3677100 0.0 1013137
09:00+2всв3894100 1.1 1011421
12:00+3св51093100 1.8 1006695
15:00+2всв3898100 5.0 1004478
18:00+2вюв2499100 1.1 1002292
21:00+2ю23100100 2.5 1001194
22 апреля, чт
чт2200:00+1юз3699100 0.4 1001270
03:00+1юз3898100 0.8 1003358
06:00+1ююз2699100 0.8 1003212
09:00+2ююз2799100 1.6 1004352
12:00+7юз468185 0.0 1005690
15:00+9юз47715 0.1 1006798
18:00+10ююз2670100 0.0 1006472
21:00+6юв228442 0.0 100717
23 апреля, пт
пт2300:00+5вюв4128951 0.0 1006220
03:00+6ююв3990100 0.0 1005291
06:00+6юв3995100 1.8 1005316
09:00+7ю4786100 2.9 1006782
12:00+9ююз466096 0.2 10071450
15:00+6юв368599 2.8 1008465
18:00+8юз366445 0.6 1008760
21:00+4вюв227698 0.7 100910
24 апреля, сб
сб2400:00+3ююв268690 0.0 1010133
03:00+2юв2586100 0.0 101097
06:00+3юв2586100 0.0 1010135
09:00+3в2296100 1.0 1009451
12:00+3с2397100 2.2 1008508
15:00+3сз2597100 4.6 1007489
18:00+3ссз2698100 0.6 1006460
21:00+3сз3698100 0.6 1005447
25 апреля, вс
вс2500:00+2ссз3598100 1.9 1003387
03:00+2сз2598100 5.1 1001218
06:00+4св21097100 0.3 1000382
09:00+7всв51186100 0.4 999564
12:00+11в586875 0.1 10001288
15:00+11всв586094 0.4 10001520
18:00+10всв477098 0.4 1001961
21:00+6св368893 0.4 1001164